CW2401 Weather Reports


Display with metric or nautical units.
time (UTC)temp
F
wind
direction
speed
MPH
gust
MPH
rain 1hr
in
rain 24hr
in
rain mn
in
humidity
%
barometer
mb
20260510152447 78 300 2.0 5.0 0.00 0.00 0.00 48 1016.9
20260510152247 78 107 2.0 4.0 0.00 0.00 0.00 48 1016.9
20260510152047 78 107 2.0 5.0 0.00 0.00 0.00 50 1017.0
20260510151847 78 178 2.0 6.0 0.00 0.00 0.00 52 1017.0
20260510151648 78 176 2.0 6.0 0.00 0.00 0.00 54 1017.0
20260510151447 78 11 2.0 6.0 0.00 0.00 0.00 52 1017.0
20260510151244 78 342 2.0 6.0 0.00 0.00 0.00 52 1017.0
20260510151045 78 269 1.0 6.0 0.00 0.00 0.00 53 1017.0
20260510150845 78 345 1.0 6.0 0.00 0.00 0.00 55 1017.0
20260510150645 78 234 1.0 4.0 0.00 0.00 0.00 55 1016.9
20260510150046 78 144 1.0 3.0 0.00 0.00 0.00 54 1016.9
20260510145644 78 144 1.0 3.0 0.00 0.00 0.00 54 1016.8
20260510145444 78 144 1.0 3.0 0.00 0.00 0.00 54 1016.8
20260510145244 78 87 2.0 4.0 0.00 0.00 0.00 55 1016.8
20260510145045 78 36 2.0 4.0 0.00 0.00 0.00 55 1016.8
20260510144842 78 355 2.0 4.0 0.00 0.00 0.00 54 1016.8
20260510144643 77 336 1.0 4.0 0.00 0.00 0.00 56 1016.8
20260510144443 77 333 1.0 4.0 0.00 0.00 0.00 56 1016.8
20260510144244 77 313 1.0 4.0 0.00 0.00 0.00 57 1016.7
20260510144044 76 304 1.0 3.0 0.00 0.00 0.00 61 1016.7
20260510143843 76 206 1.0 3.0 0.00 0.00 0.00 59 1016.7
20260510143644 76 207 1.0 3.0 0.00 0.00 0.00 61 1016.8
20260510143241 76 326 1.0 4.0 0.00 0.00 0.00 64 1016.8
20260510142842 76 323 1.0 4.0 0.00 0.00 0.00 63 1016.8
20260510142638 76 323 1.0 4.0 0.00 0.00 0.00 62 1016.8
20260510141834 75 11 1.0 3.0 0.00 0.00 0.00 68 1016.7
20260510141634 75 11 1.0 3.0 0.00 0.00 0.00 68 1016.7
20260510141434 75 12 2.0 3.0 0.00 0.00 0.00 69 1016.7
20260510141232 74 12 1.0 3.0 0.00 0.00 0.00 68 1016.7
20260510141034 74 5 1.0 4.0 0.00 0.00 0.00 69 1016.8
20260510140832 73 0 1.0 4.0 0.00 0.00 0.00 70 1016.7
20260510140632 73 0 1.0 4.0 0.00 0.00 0.00 72 1016.7
20260510140432 72 0 1.0 4.0 0.00 0.00 0.00 76 1016.7
20260510140230 72 5 1.0 4.0 0.00 0.00 0.00 77 1016.8
20260510140029 72 15 1.0 4.0 0.00 0.00 0.00 77 1016.8
20260510135828 71 15 1.0 4.0 0.00 0.00 0.00 78 1016.8
20260510135623 71 323 1.0 4.0 0.00 0.00 0.00 76 1016.8
20260510135422 70 323 1.0 4.0 0.00 0.00 0.00 77 1016.7
20260510135222 70 321 1.0 4.0 0.00 0.00 0.00 80 1016.7
20260510135023 69 327 0.0 4.0 0.00 0.00 0.00 83 1016.7
20260510134220 68 355 0.0 1.0 0.00 0.00 0.00 86 1016.8
20260510134017 68 355 0.0 1.0 0.00 0.00 0.00 87 1016.8
20260510133613 67 355 1.0 3.0 0.00 0.00 0.00 87 1016.8
20260510133413 67 355 1.0 3.0 0.00 0.00 0.00 86 1016.8
20260510133211 67 355 1.0 3.0 0.00 0.00 0.00 87 1016.8
20260510133010 67 355 1.0 4.0 0.00 0.00 0.00 87 1016.8
20260510132811 66 355 1.0 4.0 0.00 0.00 0.00 87 1016.8
20260510132409 65 53 0.0 4.0 0.00 0.00 0.00 89 1016.8
20260510132208 65 5 0.0 4.0 0.00 0.00 0.00 91 1016.8
20260510132008 64 327 0.0 3.0 0.00 0.00 0.00 93 1016.8
20260510131810 64 11 0.0 2.0 0.00 0.00 0.00 93 1016.8
20260510131610 64 11 0.0 2.0 0.00 0.00 0.00 93 1016.7
20260510131206 63 11 0.0 3.0 0.00 0.00 0.00 94 1016.6
20260510131003 62 11 0.0 3.0 0.00 0.00 0.00 94 1016.6
20260510130803 62 11 0.0 3.0 0.00 0.00 0.00 94 1016.6
20260510130603 62 11 0.0 3.0 0.00 0.00 0.00 94 1016.6
20260510130403 62 11 0.0 3.0 0.00 0.00 0.00 95 1016.6
20260510130202 62 22 0.0 1.0 0.00 0.00 0.00 95 1016.6
20260510125959 62 21 0.0 1.0 0.00 0.00 0.00 95 1016.6
20260510125757 61 69 0.0 0.0 0.00 0.00 0.00 95 1016.5
20260510125355 61 74 0.0 0.0 0.00 0.00 0.00 95 1016.5
20260510125153 60 78 0.0 0.0 0.00 0.00 0.00 95 1016.5
20260510124953 60 78 0.0 0.0 0.00 0.00 0.00 95 1016.4
20260510124754 60 78 0.0 0.0 0.00 0.00 0.00 95 1016.4
20260510124552 59 78 0.0 0.0 0.00 0.00 0.00 95 1016.4
20260510124351 59 78 0.0 0.0 0.00 0.00 0.00 95 1016.4
20260510124149 59 78 0.0 0.0 0.00 0.00 0.00 95 1016.4
20260510123950 59 78 0.0 0.0 0.00 0.00 0.00 95 1016.4
20260510123750 59 78 0.0 0.0 0.00 0.00 0.00 94 1016.4
20260510123346 58 78 0.0 0.0 0.00 0.00 0.00 95 1016.3
20260510123146 58 78 0.0 0.0 0.00 0.00 0.00 95 1016.2
20260510122743 58 78 0.0 0.0 0.00 0.00 0.00 94 1016.2
20260510122544 58 78 0.0 0.0 0.00 0.00 0.00 94 1016.2
20260510122342 58 78 0.0 0.0 0.00 0.00 0.00 94 1016.2
20260510122144 57 78 0.0 0.0 0.00 0.00 0.00 94 1016.1
20260510121942 57 78 0.0 0.0 0.00 0.00 0.00 94 1016.1
20260510121744 57 78 0.0 0.0 0.00 0.00 0.00 94 1015.9
20260510121542 57 78 0.0 0.0 0.00 0.00 0.00 94 1015.9
20260510121341 57 78 0.0 0.0 0.00 0.00 0.00 94 1015.9
20260510121140 57 78 0.0 0.0 0.00 0.00 0.00 94 1015.9
20260510120939 57 78 0.0 0.0 0.00 0.00 0.00 94 1015.8
20260510120738 57 78 0.0 0.0 0.00 0.00 0.00 94 1015.7
20260510120538 57 78 0.0 0.0 0.00 0.00 0.00 94 1015.8
20260510115937 57 78 0.0 0.0 0.00 0.00 0.00 94 1015.8
20260510115538 56 78 0.0 0.0 0.00 0.00 0.00 93 1015.7
20260510115337 56 78 0.0 0.0 0.00 0.00 0.00 93 1015.8
20260510115132 56 78 0.0 0.0 0.00 0.00 0.00 93 1015.8
20260510114934 56 78 0.0 0.0 0.00 0.00 0.00 93 1015.8
20260510114730 56 78 0.0 0.0 0.00 0.00 0.00 93 1015.7
20260510114330 56 78 0.0 0.0 0.00 0.00 0.00 93 1015.7
20260510114130 56 78 0.0 0.0 0.00 0.00 0.00 93 1015.7
20260510113927 56 78 0.0 0.0 0.00 0.00 0.00 93 1015.7
20260510113726 56 78 0.0 0.0 0.00 0.00 0.00 93 1015.7
20260510113525 56 78 0.0 0.0 0.00 0.00 0.00 93 1015.6
20260510113325 56 78 0.0 0.0 0.00 0.00 0.00 93 1015.6
20260510113125 56 78 0.0 0.0 0.00 0.00 0.00 93 1015.6
20260510112926 56 78 0.0 0.0 0.00 0.00 0.00 93 1015.6
20260510112724 56 78 0.0 0.0 0.00 0.00 0.00 93 1015.6
20260510112522 56 78 0.0 0.0 0.00 0.00 0.00 93 1015.6
20260510112325 56 78 0.0 0.0 0.00 0.00 0.00 93 1015.5
20260510112121 56 78 0.0 0.0 0.00 0.00 0.00 93 1015.5
20260510111922 56 78 0.0 0.0 0.00 0.00 0.00 93 1015.4
20260510111721 56 78 0.0 0.0 0.00 0.00 0.00 93 1015.3
20260510111321 56 78 0.0 0.0 0.00 0.00 0.00 93 1015.3
20260510111122 56 78 0.0 0.0 0.00 0.00 0.00 93 1015.2
20260510110920 56 78 0.0 0.0 0.00 0.00 0.00 93 1015.2
20260510110718 56 78 0.0 0.0 0.00 0.00 0.00 93 1015.2
20260510110518 56 78 0.0 0.0 0.00 0.00 0.00 93 1015.1
20260510110319 56 78 0.0 0.0 0.00 0.00 0.00 93 1015.1
20260510105919 56 78 0.0 0.0 0.00 0.00 0.00 93 1015.0
20260510105720 56 78 0.0 0.0 0.00 0.00 0.00 93 1015.0
20260510105518 56 78 0.0 0.0 0.00 0.00 0.00 93 1015.0
20260510105318 56 78 0.0 0.0 0.00 0.00 0.00 93 1014.9
20260510105117 56 78 0.0 0.0 0.00 0.00 0.00 93 1014.9
20260510104716 56 78 0.0 0.0 0.00 0.00 0.00 93 1014.7
20260510104517 56 78 0.0 0.0 0.00 0.00 0.00 93 1014.7
20260510104319 56 78 0.0 0.0 0.00 0.00 0.00 93 1014.7
20260510104114 56 78 0.0 0.0 0.00 0.00 0.00 93 1014.7
20260510103914 56 78 0.0 0.0 0.00 0.00 0.00 93 1014.7
20260510103715 56 78 0.0 0.0 0.00 0.00 0.00 93 1014.6
20260510103515 56 78 0.0 0.0 0.00 0.00 0.00 93 1014.6
20260510103315 56 78 0.0 0.0 0.00 0.00 0.00 93 1014.5
20260510103115 56 78 0.0 0.0 0.00 0.00 0.00 93 1014.5
20260510102914 56 78 0.0 0.0 0.00 0.00 0.00 93 1014.5
20260510102513 56 78 0.0 0.0 0.00 0.00 0.00 93 1014.4
20260510102313 56 78 0.0 0.0 0.00 0.00 0.00 93 1014.4
20260510101913 56 78 0.0 0.0 0.00 0.00 0.00 93 1014.2
20260510101713 56 78 0.0 0.0 0.00 0.00 0.00 93 1014.3
20260510101312 56 78 0.0 0.0 0.00 0.00 0.00 93 1014.2
20260510101113 56 78 0.0 0.0 0.00 0.00 0.00 93 1014.1
20260510100709 56 78 0.0 0.0 0.00 0.00 0.00 93 1014.2
20260510100509 57 78 0.0 0.0 0.00 0.00 0.00 93 1014.2
20260510100108 57 78 0.0 0.0 0.00 0.00 0.00 93 1014.1
20260510095909 57 78 0.0 0.0 0.00 0.00 0.00 93 1014.0
20260510095706 57 78 0.0 0.0 0.00 0.00 0.00 93 1014.0
20260510095508 57 78 0.0 0.0 0.00 0.00 0.00 93 1014.0
20260510095308 57 78 0.0 0.0 0.00 0.00 0.00 93 1014.0
20260510095107 57 78 0.0 0.0 0.00 0.00 0.00 93 1013.9
20260510094906 57 78 0.0 0.0 0.00 0.00 0.00 93 1014.0
20260510094706 57 78 0.0 0.0 0.00 0.00 0.00 93 1013.9
20260510094507 57 78 0.0 0.0 0.00 0.00 0.00 93 1013.9
20260510094307 57 78 0.0 0.0 0.00 0.00 0.00 93 1013.8
20260510094108 57 78 0.0 0.0 0.00 0.00 0.00 93 1013.8
20260510093909 57 78 0.0 0.0 0.00 0.00 0.00 93 1013.8
20260510093707 57 78 0.0 0.0 0.00 0.00 0.00 93 1013.8
20260510093508 57 78 0.0 0.0 0.00 0.00 0.00 93 1013.8
20260510093308 57 78 0.0 0.0 0.00 0.00 0.00 93 1013.8
20260510093107 57 78 0.0 0.0 0.00 0.00 0.00 93 1013.8
20260510092907 57 78 0.0 0.0 0.00 0.00 0.00 93 1013.8
20260510092508 57 78 0.0 0.0 0.00 0.00 0.00 93 1013.8
20260510092307 57 78 0.0 0.0 0.00 0.00 0.00 93 1013.8
20260510092107 57 78 0.0 0.0 0.00 0.00 0.00 93 1013.8
20260510091909 57 78 0.0 0.0 0.00 0.00 0.00 93 1013.8
20260510091707 57 78 0.0 0.0 0.00 0.00 0.00 93 1013.7
20260510091507 57 78 0.0 0.0 0.00 0.00 0.00 93 1013.7
20260510091306 57 78 0.0 0.0 0.00 0.00 0.00 93 1013.6
20260510091106 57 78 0.0 0.0 0.00 0.00 0.00 93 1013.6
20260510090906 57 78 0.0 0.0 0.00 0.00 0.00 93 1013.7
20260510090708 57 78 0.0 0.0 0.00 0.00 0.00 93 1013.7
20260510090507 57 78 0.0 0.0 0.00 0.00 0.00 93 1013.6
20260510090306 57 78 0.0 0.0 0.00 0.00 0.00 93 1013.7
20260510090108 57 78 0.0 0.0 0.00 0.00 0.00 93 1013.7
20260510085906 57 78 0.0 0.0 0.00 0.00 0.00 93 1013.6
20260510085706 57 78 0.0 0.0 0.00 0.00 0.00 93 1013.6
20260510085506 57 78 0.0 0.0 0.00 0.00 0.00 93 1013.6
20260510084907 57 78 0.0 0.0 0.00 0.00 0.00 93 1013.4
20260510084706 57 78 0.0 0.0 0.00 0.00 0.00 93 1013.4
20260510084506 58 78 0.0 0.0 0.00 0.00 0.00 93 1013.4
20260510084309 58 78 0.0 0.0 0.00 0.00 0.00 93 1013.4
20260510084109 58 78 0.0 0.0 0.00 0.00 0.00 93 1013.3
20260510083906 58 78 0.0 0.0 0.00 0.00 0.00 93 1013.3
20260510083705 58 78 0.0 0.0 0.00 0.00 0.00 93 1013.3
20260510083504 58 78 0.0 0.0 0.00 0.00 0.00 93 1013.3
20260510083304 58 78 0.0 0.0 0.00 0.00 0.00 93 1013.2
20260510083106 58 78 0.0 0.0 0.00 0.00 0.00 93 1013.3
20260510082906 58 78 0.0 0.0 0.00 0.00 0.00 93 1013.2
20260510082705 58 78 0.0 0.0 0.00 0.00 0.00 93 1013.2
20260510082505 58 78 0.0 0.0 0.00 0.00 0.00 93 1013.3
20260510082306 58 78 0.0 0.0 0.00 0.00 0.00 93 1013.3
20260510082105 58 78 0.0 0.0 0.00 0.00 0.00 93 1013.3
20260510081704 58 78 0.0 0.0 0.00 0.00 0.00 93 1013.3
20260510081504 58 78 0.0 0.0 0.00 0.00 0.00 93 1013.3
20260510081305 58 78 0.0 0.0 0.00 0.00 0.00 93 1013.2
20260510081104 58 78 0.0 0.0 0.00 0.00 0.00 93 1013.2
20260510080907 58 78 0.0 0.0 0.00 0.00 0.00 93 1013.2
20260510080702 58 78 0.0 0.0 0.00 0.00 0.00 93 1013.2
20260510080459 58 78 0.0 0.0 0.00 0.00 0.00 93 1013.2
20260510080258 58 78 0.0 0.0 0.00 0.00 0.00 93 1013.2
20260510080057 58 78 0.0 0.0 0.00 0.00 0.00 93 1013.2
20260510075856 58 78 0.0 0.0 0.00 0.00 0.00 93 1013.2
20260510075656 58 78 0.0 0.0 0.00 0.00 0.00 93 1013.2
20260510075456 58 78 0.0 0.0 0.00 0.00 0.00 93 1013.3
20260510075054 58 78 0.0 0.0 0.00 0.00 0.00 93 1013.3
20260510074852 58 78 0.0 0.0 0.00 0.00 0.00 93 1013.3
20260510074448 58 78 0.0 0.0 0.00 0.00 0.00 93 1013.3
20260510074248 58 78 0.0 0.0 0.00 0.00 0.00 93 1013.4
20260510074047 58 78 0.0 0.0 0.00 0.00 0.00 93 1013.4
20260510073843 58 78 0.0 0.0 0.00 0.00 0.00 93 1013.4
20260510073642 58 78 0.0 0.0 0.00 0.00 0.00 93 1013.3
20260510073440 58 78 0.0 0.0 0.00 0.00 0.00 93 1013.2
20260510073238 58 78 0.0 0.0 0.00 0.00 0.00 93 1013.2
20260510073039 58 78 0.0 0.0 0.00 0.00 0.00 92 1013.1
20260510072840 58 78 0.0 0.0 0.00 0.00 0.00 93 1013.1
20260510072638 58 78 0.0 0.0 0.00 0.00 0.00 93 1013.1
20260510072034 58 78 0.0 0.0 0.00 0.00 0.00 92 1013.1
20260510071634 58 78 0.0 0.0 0.00 0.00 0.00 92 1013.0
20260510071435 58 78 0.0 0.0 0.00 0.00 0.00 92 1013.0
20260510071234 58 78 0.0 0.0 0.00 0.00 0.00 92 1013.0
20260510071034 58 78 0.0 0.0 0.00 0.00 0.00 92 1013.1
20260510070834 58 78 0.0 0.0 0.00 0.00 0.00 92 1013.1
20260510070634 58 78 0.0 0.0 0.00 0.00 0.00 92 1013.0
20260510070433 58 78 0.0 0.0 0.00 0.00 0.00 92 1013.0
20260510070033 58 78 0.0 0.0 0.00 0.00 0.00 92 1012.9
20260510065832 58 78 0.0 0.0 0.00 0.00 0.00 92 1012.9
20260510065633 58 78 0.0 0.0 0.00 0.00 0.00 92 1012.9
20260510065432 58 78 0.0 0.0 0.00 0.00 0.00 92 1012.8
20260510065231 58 78 0.0 0.0 0.00 0.00 0.00 92 1012.9
20260510065030 58 78 0.0 0.0 0.00 0.00 0.00 92 1012.9
20260510064829 58 78 0.0 0.0 0.00 0.00 0.00 92 1013.0
20260510064427 58 78 0.0 0.0 0.00 0.00 0.00 92 1013.0
20260510064227 58 78 0.0 0.0 0.00 0.00 0.00 92 1013.0
20260510064024 58 78 0.0 0.0 0.00 0.00 0.00 93 1013.0
20260510063822 58 78 0.0 0.0 0.00 0.00 0.00 93 1013.0
20260510063621 58 78 0.0 0.0 0.00 0.00 0.00 92 1013.0
20260510063420 58 78 0.0 0.0 0.00 0.00 0.00 93 1013.0
20260510063218 58 78 0.0 0.0 0.00 0.00 0.00 93 1013.0
20260510063018 58 78 0.0 0.0 0.00 0.00 0.00 92 1012.9
20260510062816 58 78 0.0 0.0 0.00 0.00 0.00 92 1012.9
20260510062616 58 78 0.0 0.0 0.00 0.00 0.00 92 1012.9
20260510062413 58 78 0.0 0.0 0.00 0.00 0.00 92 1012.9
20260510062210 58 78 0.0 0.0 0.00 0.00 0.00 92 1012.8
20260510062012 58 78 0.0 0.0 0.00 0.00 0.00 92 1012.8
20260510061808 58 78 0.0 0.0 0.00 0.00 0.00 92 1012.7
20260510061203 58 78 0.0 0.0 0.00 0.00 0.00 92 1012.8
20260510061002 58 78 0.0 0.0 0.00 0.00 0.00 92 1012.8
20260510060800 58 78 0.0 0.0 0.00 0.00 0.00 92 1012.8
20260510060558 58 78 0.0 0.0 0.00 0.00 0.00 92 1012.9
20260510060154 59 78 0.0 0.0 0.00 0.00 0.00 92 1013.0
20260510055954 59 78 0.0 0.0 0.00 0.00 0.00 92 1013.1
20260510055752 59 78 0.0 0.0 0.00 0.00 0.00 92 1013.2
20260510055550 59 78 0.0 0.0 0.00 0.00 0.00 92 1013.2
20260510055348 59 78 0.0 0.0 0.00 0.00 0.00 92 1013.2
20260510055148 59 78 0.0 0.0 0.00 0.00 0.00 92 1013.2
20260510054947 59 78 0.0 0.0 0.00 0.00 0.00 92 1013.2
20260510054746 59 78 0.0 0.0 0.00 0.00 0.00 92 1013.2
20260510054343 59 78 0.0 0.0 0.00 0.00 0.00 92 1013.2
20260510053940 59 78 0.0 0.0 0.00 0.00 0.00 92 1013.3
20260510053742 59 78 0.0 0.0 0.00 0.00 0.00 92 1013.3
20260510053540 59 78 0.0 0.0 0.00 0.00 0.00 92 1013.3
20260510053342 59 78 0.0 0.0 0.00 0.00 0.00 92 1013.3
20260510053138 59 78 0.0 0.0 0.00 0.00 0.00 92 1013.3
20260510052941 59 78 0.0 0.0 0.00 0.00 0.00 92 1013.3
20260510052737 59 78 0.0 0.0 0.00 0.00 0.00 92 1013.4
20260510052536 59 78 0.0 0.0 0.00 0.00 0.00 92 1013.4
20260510052337 59 78 0.0 0.0 0.00 0.00 0.00 92 1013.4
20260510052136 59 78 0.0 0.0 0.00 0.00 0.00 92 1013.5
20260510051937 59 78 0.0 0.0 0.00 0.00 0.00 92 1013.5
20260510051736 59 78 0.0 0.0 0.00 0.00 0.00 92 1013.5
20260510051534 59 78 0.0 0.0 0.00 0.00 0.00 92 1013.5
20260510051336 59 78 0.0 0.0 0.00 0.00 0.00 92 1013.5
20260510051134 59 78 0.0 0.0 0.00 0.00 0.00 92 1013.5
20260510050733 59 78 0.0 0.0 0.00 0.00 0.00 92 1013.6
20260510050530 59 78 0.0 0.0 0.00 0.00 0.00 92 1013.7
20260510050326 59 78 0.0 0.0 0.00 0.00 0.00 92 1013.6
20260510050126 59 78 0.0 0.0 0.00 0.00 0.00 92 1013.7
20260510045925 59 78 0.0 0.0 0.00 0.00 0.00 92 1013.7
20260510045723 59 78 0.0 0.0 0.00 0.00 0.00 92 1013.6
20260510045521 59 78 0.0 0.0 0.00 0.00 0.00 92 1013.6
20260510045320 59 78 0.0 0.0 0.00 0.00 0.00 92 1013.6
20260510045120 59 78 0.0 0.0 0.00 0.00 0.00 92 1013.6
20260510044921 59 78 0.0 0.0 0.00 0.00 0.00 92 1013.6
20260510044720 59 78 0.0 0.0 0.00 0.00 0.00 92 1013.6
20260510044516 59 78 0.0 0.0 0.00 0.00 0.00 92 1013.6
20260510044314 59 78 0.0 0.0 0.00 0.00 0.00 92 1013.7
20260510043913 60 78 0.0 0.0 0.00 0.00 0.00 92 1013.7
20260510043713 60 78 0.0 0.0 0.00 0.00 0.00 92 1013.7
20260510043310 60 78 0.0 0.0 0.00 0.00 0.00 92 1013.5
20260510043111 60 78 0.0 0.0 0.00 0.00 0.00 92 1013.5
20260510042909 60 78 0.0 0.0 0.00 0.00 0.00 92 1013.5
20260510042706 60 78 0.0 0.0 0.00 0.00 0.00 92 1013.5
20260510042504 60 78 0.0 0.0 0.00 0.00 0.00 91 1013.5
20260510042305 60 78 0.0 0.0 0.00 0.00 0.00 91 1013.5
20260510042102 60 78 0.0 0.0 0.00 0.00 0.00 91 1013.6
20260510041900 60 78 0.0 0.0 0.00 0.00 0.00 91 1013.5
20260510041659 60 78 0.0 0.0 0.00 0.00 0.00 91 1013.4
20260510041459 60 78 0.0 0.0 0.00 0.00 0.00 91 1013.4
20260510041058 60 78 0.0 0.0 0.00 0.00 0.00 91 1013.4
20260510040856 60 78 0.0 0.0 0.00 0.00 0.00 91 1013.4
20260510040654 60 78 0.0 0.0 0.00 0.00 0.00 91 1013.5
20260510040452 60 78 0.0 0.0 0.00 0.00 0.00 92 1013.5
20260510040052 60 78 0.0 0.0 0.00 0.00 0.00 92 1013.5
20260510035849 60 78 0.0 0.0 0.00 0.00 0.00 92 1013.5
20260510035646 60 78 0.0 0.0 0.00 0.00 0.00 92 1013.5
20260510035443 60 78 0.0 0.0 0.00 0.00 0.00 92 1013.5
20260510035244 60 78 0.0 0.0 0.00 0.00 0.00 92 1013.5
20260510035041 60 78 0.0 0.0 0.00 0.00 0.00 91 1013.5
20260510034838 60 78 0.0 0.0 0.00 0.00 0.00 91 1013.5
20260510034636 60 78 0.0 0.0 0.00 0.00 0.00 91 1013.5
20260510034434 60 78 0.0 0.0 0.00 0.00 0.00 91 1013.5
20260510034232 60 78 0.0 0.0 0.00 0.00 0.00 91 1013.4
20260510034033 60 78 0.0 0.0 0.00 0.00 0.00 91 1013.4
20260510033832 60 78 0.0 0.0 0.00 0.00 0.00 91 1013.4
20260510033230 60 78 0.0 0.0 0.00 0.00 0.00 91 1013.4
20260510033029 60 78 0.0 0.0 0.00 0.00 0.00 91 1013.4
20260510032828 61 78 0.0 0.0 0.00 0.00 0.00 91 1013.5
20260510032626 61 78 0.0 0.0 0.00 0.00 0.00 91 1013.4
20260510032426 61 78 0.0 0.0 0.00 0.00 0.00 91 1013.4
20260510032226 61 78 0.0 0.0 0.00 0.00 0.00 91 1013.4
20260510032027 61 78 0.0 0.0 0.00 0.00 0.00 91 1013.4
20260510031827 61 78 0.0 0.0 0.00 0.00 0.00 91 1013.4
20260510031426 61 78 0.0 0.0 0.00 0.00 0.00 91 1013.4
20260510031027 61 78 0.0 0.0 0.00 0.00 0.00 91 1013.4
20260510030826 61 78 0.0 0.0 0.00 0.00 0.00 91 1013.5
20260510030425 61 78 0.0 0.0 0.00 0.00 0.00 91 1013.4
20260510030021 61 78 0.0 0.0 0.00 0.00 0.00 91 1013.3
20260510025818 61 78 0.0 0.0 0.00 0.00 0.00 91 1013.3
20260510025619 61 78 0.0 0.0 0.00 0.00 0.00 91 1013.4
20260510025416 62 78 0.0 0.0 0.00 0.00 0.00 91 1013.3
20260510025216 62 78 0.0 0.0 0.00 0.00 0.00 91 1013.3
20260510025014 62 78 0.0 0.0 0.00 0.00 0.00 90 1013.3
20260510024812 62 78 0.0 0.0 0.00 0.00 0.00 90 1013.3
20260510024610 62 78 0.0 0.0 0.00 0.00 0.00 90 1013.3
20260510024411 62 78 0.0 0.0 0.00 0.00 0.00 90 1013.3
20260510024212 62 78 0.0 0.0 0.00 0.00 0.00 90 1013.2
20260510023810 62 78 0.0 0.0 0.00 0.00 0.00 90 1013.2
20260510023608 62 78 0.0 0.0 0.00 0.00 0.00 90 1013.3
20260510023408 62 78 0.0 0.0 0.00 0.00 0.00 90 1013.3
20260510023207 62 78 0.0 0.0 0.00 0.00 0.00 90 1013.3
20260510023008 62 78 0.0 0.0 0.00 0.00 0.00 90 1013.3
20260510022807 62 78 0.0 0.0 0.00 0.00 0.00 90 1013.2
20260510022403 62 78 0.0 0.0 0.00 0.00 0.00 90 1013.2
20260510022202 62 78 0.0 0.0 0.00 0.00 0.00 90 1013.2
20260510022004 62 78 0.0 0.0 0.00 0.00 0.00 90 1013.2
20260510021803 62 78 0.0 0.0 0.00 0.00 0.00 90 1013.2
20260510021600 62 78 0.0 0.0 0.00 0.00 0.00 90 1013.1
20260510021358 62 78 0.0 0.0 0.00 0.00 0.00 90 1013.1
20260510021158 63 78 0.0 0.0 0.00 0.00 0.00 90 1013.1
20260510020956 63 78 0.0 0.0 0.00 0.00 0.00 90 1013.0
20260510020756 63 78 0.0 0.0 0.00 0.00 0.00 89 1013.1
20260510020557 63 78 0.0 0.0 0.00 0.00 0.00 89 1013.2
20260510020356 63 78 0.0 0.0 0.00 0.00 0.00 89 1013.2
20260510020154 63 78 0.0 0.0 0.00 0.00 0.00 89 1013.2
20260510015953 63 78 0.0 0.0 0.00 0.00 0.00 89 1013.2
20260510015752 63 78 0.0 0.0 0.00 0.00 0.00 89 1013.1
20260510015348 63 78 0.0 0.0 0.00 0.00 0.00 89 1013.0
20260510015148 63 78 0.0 0.0 0.00 0.00 0.00 89 1013.0
20260510014947 63 78 0.0 0.0 0.00 0.00 0.00 89 1012.9
20260510014747 63 78 0.0 0.0 0.00 0.00 0.00 89 1012.8
20260510014546 63 78 0.0 0.0 0.00 0.00 0.00 89 1012.7
20260510014146 64 78 0.0 0.0 0.00 0.00 0.00 89 1012.7
20260510013944 64 78 0.0 0.0 0.00 0.00 0.00 89 1012.7
20260510013544 64 78 0.0 0.0 0.00 0.00 0.00 89 1012.7
20260510013344 64 78 0.0 0.0 0.00 0.00 0.00 89 1012.6
20260510013145 64 78 0.0 0.0 0.00 0.00 0.00 89 1012.5
20260510012945 64 78 0.0 0.0 0.00 0.00 0.00 89 1012.5
20260510012742 64 78 0.0 0.0 0.00 0.00 0.00 88 1012.5
20260510012342 64 78 0.0 0.0 0.00 0.00 0.00 88 1012.4
20260510012142 65 78 0.0 0.0 0.00 0.00 0.00 88 1012.4
20260510011742 65 78 0.0 0.0 0.00 0.00 0.00 88 1012.3
20260510011341 65 78 0.0 0.0 0.00 0.00 0.00 87 1012.2
20260510011140 65 78 0.0 0.0 0.00 0.00 0.00 88 1012.1
20260510010940 65 78 0.0 0.0 0.00 0.00 0.00 87 1012.2
20260510010738 65 78 0.0 0.0 0.00 0.00 0.00 87 1012.2
20260510010538 65 78 0.0 0.0 0.00 0.00 0.00 87 1012.2
20260510010338 66 78 0.0 0.0 0.00 0.00 0.00 87 1012.2
20260510010138 66 78 0.0 0.0 0.00 0.00 0.00 87 1012.1
20260510005938 66 78 0.0 0.0 0.00 0.00 0.00 87 1012.1
20260510005737 66 78 0.0 0.0 0.00 0.00 0.00 87 1012.1
20260510005535 66 78 0.0 0.0 0.00 0.00 0.00 86 1012.0
20260510005332 66 78 0.0 0.0 0.00 0.00 0.00 86 1012.0
20260510005130 66 78 0.0 0.0 0.00 0.00 0.00 86 1012.1
20260510004930 67 78 0.0 0.0 0.00 0.00 0.00 86 1012.0
20260510004728 67 78 0.0 0.0 0.00 0.00 0.00 86 1012.0
20260510004526 67 78 0.0 0.0 0.00 0.00 0.00 86 1012.0
20260510004326 67 78 0.0 0.0 0.00 0.00 0.00 85 1012.0
20260510004127 67 78 0.0 0.0 0.00 0.00 0.00 85 1012.0
20260510003924 67 78 0.0 0.0 0.00 0.00 0.00 85 1012.0
20260510003725 67 78 0.0 0.0 0.00 0.00 0.00 85 1012.0
20260510003322 67 78 0.0 0.0 0.00 0.00 0.00 85 1012.1
20260510003118 67 78 0.0 0.0 0.00 0.00 0.00 85 1012.1
20260510002918 68 78 0.0 0.0 0.00 0.00 0.00 85 1012.0
20260510002716 68 78 0.0 0.0 0.00 0.00 0.00 85 1012.0
20260510002514 68 78 0.0 0.0 0.00 0.00 0.00 85 1012.0
20260510002315 68 78 0.0 0.0 0.00 0.00 0.00 84 1012.0
20260510002115 68 78 0.0 0.0 0.00 0.00 0.00 84 1011.9
20260510001913 68 78 0.0 0.0 0.00 0.00 0.00 84 1012.0
20260510001713 68 78 0.0 0.0 0.00 0.00 0.00 84 1011.9
20260510001512 68 78 0.0 0.0 0.00 0.00 0.00 84 1011.9
20260510001309 69 78 0.0 0.0 0.00 0.00 0.00 83 1011.9
20260510001111 69 78 0.0 0.0 0.00 0.00 0.00 83 1011.9
20260510000907 69 78 0.0 0.0 0.00 0.00 0.00 83 1011.9
20260510000707 69 78 0.0 0.0 0.00 0.00 0.00 83 1011.9
20260510000506 69 78 0.0 0.0 0.00 0.00 0.00 83 1011.8
20260510000305 69 78 0.0 0.0 0.00 0.00 0.00 83 1011.8
20260509235901 69 78 0.0 0.0 0.00 0.00 0.00 82 1011.7
20260509235704 69 78 0.0 0.0 0.00 0.00 0.00 82 1011.7
20260509235504 70 78 0.0 0.0 0.00 0.00 0.00 82 1011.7
20260509235101 70 78 0.0 0.0 0.00 0.00 0.00 82 1011.7
20260509234900 70 78 0.0 0.0 0.00 0.00 0.00 81 1011.7
20260509234457 70 78 0.0 0.0 0.00 0.00 0.00 81 1011.6
20260509234257 70 78 0.0 0.0 0.00 0.00 0.00 81 1011.6
20260509234054 70 78 0.0 0.0 0.00 0.00 0.00 81 1011.5
20260509233852 70 78 0.0 0.0 0.00 0.00 0.00 80 1011.4
20260509233650 71 78 0.0 0.0 0.00 0.00 0.00 80 1011.3
20260509233448 71 78 0.0 0.0 0.00 0.00 0.00 80 1011.4
20260509233249 71 78 0.0 0.0 0.00 0.00 0.00 79 1011.3
20260509233049 71 78 0.0 0.0 0.00 0.00 0.00 79 1011.3
20260509232848 71 78 0.0 0.0 0.00 0.00 0.00 79 1011.3
20260509232647 71 78 0.0 0.0 0.00 0.00 0.00 79 1011.3
20260509232244 71 78 0.0 0.0 0.00 0.00 0.00 79 1011.3
20260509232043 71 78 0.0 0.0 0.00 0.00 0.00 79 1011.4
20260509231843 71 78 0.0 0.0 0.00 0.00 0.00 78 1011.3
20260509231643 71 78 0.0 0.0 0.00 0.00 0.00 78 1011.3
20260509231042 72 78 0.0 0.0 0.00 0.00 0.00 77 1011.2
20260509230841 72 78 0.0 0.0 0.00 0.00 0.00 77 1011.1
20260509230640 72 78 0.0 0.0 0.00 0.00 0.00 77 1011.1
20260509230441 72 78 0.0 0.0 0.00 0.00 0.00 76 1011.0
20260509230239 72 78 0.0 0.0 0.00 0.00 0.00 76 1011.0
20260509225634 72 78 0.0 0.0 0.00 0.00 0.00 76 1011.0
20260509225432 72 78 0.0 1.0 0.00 0.00 0.00 76 1011.0
20260509225231 72 73 0.0 2.0 0.00 0.00 0.00 75 1011.0
20260509225029 72 73 0.0 2.0 0.00 0.00 0.00 75 1010.9
20260509224828 72 73 1.0 2.0 0.00 0.00 0.00 75 1010.9
20260509224627 72 73 1.0 2.0 0.00 0.00 0.00 75 1010.9
20260509224425 72 73 0.0 2.0 0.00 0.00 0.00 76 1011.0
20260509224222 72 70 0.0 2.0 0.00 0.00 0.00 76 1011.0
20260509223821 73 70 0.0 2.0 0.00 0.00 0.00 76 1011.0
20260509223621 73 69 0.0 2.0 0.00 0.00 0.00 76 1011.0
20260509223421 73 69 0.0 3.0 0.00 0.00 0.00 75 1011.0
20260509223218 73 70 0.0 3.0 0.00 0.00 0.00 75 1010.9
20260509223016 73 70 0.0 3.0 0.00 0.00 0.00 76 1011.0
20260509222817 73 70 1.0 3.0 0.00 0.00 0.00 75 1011.0
20260509222614 73 69 1.0 3.0 0.00 0.00 0.00 76 1011.1
20260509222416 73 90 1.0 3.0 0.00 0.00 0.00 75 1011.1
20260509222213 73 91 1.0 3.0 0.00 0.00 0.00 75 1011.2
20260509222014 73 254 1.0 3.0 0.00 0.00 0.00 75 1011.1
20260509221613 73 0 1.0 3.0 0.00 0.00 0.00 75 1011.0
20260509221415 73 5 1.0 3.0 0.00 0.00 0.00 75 1011.0
20260509221014 73 123 1.0 3.0 0.00 0.00 0.00 75 1010.9
20260509220813 73 77 1.0 3.0 0.00 0.00 0.00 75 1010.9
20260509220614 73 78 1.0 3.0 0.00 0.00 0.00 74 1010.9
20260509220412 73 78 1.0 3.0 0.00 0.00 0.00 74 1010.9
20260509220010 73 339 1.0 4.0 0.00 0.00 0.00 74 1011.0
20260509215809 73 338 2.0 4.0 0.00 0.00 0.00 74 1011.0
20260509215605 73 351 2.0 4.0 0.00 0.00 0.00 74 1011.0
20260509215204 72 221 2.0 5.0 0.00 0.00 0.00 74 1011.2
20260509214802 72 336 1.0 5.0 0.00 0.00 0.00 75 1011.0
20260509214601 72 294 1.0 5.0 0.00 0.00 0.00 76 1011.0
20260509214400 73 294 1.0 5.0 0.00 0.00 0.00 77 1011.0
20260509214001 72 329 1.0 5.0 0.00 0.00 0.00 75 1010.9
20260509213758 72 277 1.0 5.0 0.00 0.00 0.00 75 1011.0
20260509213558 72 117 1.0 5.0 0.00 0.00 0.00 76 1011.0
20260509213358 72 117 1.0 5.0 0.00 0.00 0.00 76 1011.0
20260509213157 72 92 1.0 3.0 0.00 0.00 0.00 75 1011.1
20260509212959 72 27 0.0 3.0 0.00 0.00 0.00 76 1011.1
20260509212759 72 32 0.0 2.0 0.00 0.00 0.00 78 1011.1
20260509212556 72 31 0.0 2.0 0.00 0.00 0.00 76 1011.1
20260509212357 72 30 0.0 2.0 0.00 0.00 0.00 77 1011.0
20260509212154 72 30 1.0 2.0 0.00 0.00 0.00 77 1010.9
20260509211549 72 30 1.0 2.0 0.00 0.00 0.00 77 1011.0
20260509211350 72 321 0.0 2.0 0.00 0.00 0.00 78 1010.9
20260509211150 72 355 0.0 2.0 0.00 0.00 0.00 79 1010.9
20260509210748 72 57 0.0 2.0 0.00 0.00 0.00 78 1010.7
20260509210346 72 56 0.0 2.0 0.00 0.00 0.00 78 1010.6
20260509210145 72 56 0.0 2.0 0.00 0.00 0.00 78 1010.7
20260509205743 71 134 1.0 3.0 0.00 0.00 0.00 77 1010.8
20260509205541 71 172 1.0 3.0 0.00 0.00 0.00 77 1010.8
20260509205342 71 173 1.0 3.0 0.00 0.00 0.00 77 1010.9
20260509204942 72 342 1.0 3.0 0.00 0.00 0.00 77 1011.0
20260509204742 72 355 1.0 3.0 0.00 0.00 0.00 77 1011.0
20260509204542 72 86 1.0 3.0 0.00 0.00 0.00 76 1011.0
20260509204344 72 87 1.0 3.0 0.00 0.00 0.00 76 1011.0
20260509204141 72 85 1.0 3.0 0.00 0.00 0.00 76 1011.0
20260509203942 72 84 1.0 3.0 0.00 0.00 0.00 76 1011.0
20260509203743 71 98 1.0 3.0 0.00 0.00 0.00 76 1011.0
20260509203542 71 98 1.0 3.0 0.00 0.00 0.00 76 1011.0
20260509203343 71 100 1.0 3.0 0.00 0.00 0.00 76 1011.0
20260509203142 71 101 0.0 3.0 0.00 0.00 0.00 75 1010.9
20260509202941 71 101 0.0 3.0 0.00 0.00 0.00 75 1010.9
20260509202743 71 96 0.0 2.0 0.00 0.00 0.00 75 1011.0
20260509202541 71 107 0.0 1.0 0.00 0.00 0.00 76 1011.0
20260509202139 71 105 0.0 3.0 0.00 0.00 0.00 77 1011.0
20260509201937 71 105 1.0 3.0 0.00 0.00 0.00 76 1011.0
20260509201737 71 105 1.0 3.0 0.00 0.00 0.00 76 1011.0
20260509201539 71 105 1.0 3.0 0.00 0.00 0.00 76 1011.1
20260509201339 71 105 1.0 3.0 0.00 0.00 0.00 76 1011.1
20260509200739 71 119 1.0 5.0 0.00 0.00 0.00 75 1011.0
20260509200536 71 119 1.0 5.0 0.00 0.00 0.00 75 1011.0
20260509200336 71 119 1.0 5.0 0.00 0.00 0.00 76 1011.0
20260509200137 71 117 1.0 5.0 0.00 0.00 0.00 77 1011.0
20260509195933 71 81 1.0 5.0 0.00 0.00 0.00 77 1011.1
20260509195731 71 52 1.0 3.0 0.00 0.00 0.00 77 1011.1
20260509195533 71 52 1.0 3.0 0.00 0.00 0.00 77 1011.1
20260509195330 71 52 1.0 3.0 0.00 0.00 0.00 76 1011.1
20260509195132 71 52 1.0 3.0 0.00 0.00 0.00 76 1011.1
20260509194731 72 86 1.0 3.0 0.00 0.00 0.00 76 1011.1
20260509194529 72 125 1.0 3.0 0.00 0.00 0.00 76 1011.2
20260509194129 72 132 1.0 3.0 0.00 0.00 0.00 75 1011.3
20260509193928 72 132 1.0 3.0 0.00 0.00 0.00 75 1011.3
20260509193729 72 98 1.0 3.0 0.00 0.00 0.00 74 1011.3
20260509193528 72 97 1.0 3.0 0.00 0.00 0.00 74 1011.4
20260509193327 72 97 1.0 3.0 0.00 0.00 0.00 74 1011.4
20260509193126 72 206 1.0 3.0 0.00 0.00 0.00 74 1011.4
20260509192722 72 96 1.0 3.0 0.00 0.00 0.00 74 1011.4
20260509192321 72 5 1.0 3.0 0.00 0.00 0.00 73 1011.4
20260509191718 72 180 1.0 3.0 0.00 0.00 0.00 72 1011.5
20260509191516 72 179 1.0 3.0 0.00 0.00 0.00 72 1011.5
20260509191316 72 186 1.0 4.0 0.00 0.00 0.00 72 1011.5
20260509191114 72 259 1.0 4.0 0.00 0.00 0.00 72 1011.5
20260509190714 72 67 1.0 4.0 0.00 0.00 0.00 71 1011.4
20260509190515 72 193 1.0 4.0 0.00 0.00 0.00 71 1011.4
20260509190312 72 36 1.0 5.0 0.00 0.00 0.00 72 1011.4
20260509190112 72 36 1.0 5.0 0.00 0.00 0.00 72 1011.4
20260509185712 72 36 1.0 5.0 0.00 0.00 0.00 71 1011.4
20260509185511 72 49 1.0 5.0 0.00 0.00 0.00 70 1011.5
20260509185310 72 234 1.0 5.0 0.00 0.00 0.00 72 1011.6
20260509185107 72 52 1.0 5.0 0.00 0.00 0.00 72 1011.5
20260509184906 73 101 1.0 5.0 0.00 0.00 0.00 71 1011.5
20260509184706 73 277 1.0 5.0 0.00 0.00 0.00 71 1011.6
20260509184506 72 267 1.0 5.0 0.00 0.00 0.00 72 1011.7
20260509184106 72 113 1.0 3.0 0.00 0.00 0.00 73 1011.7
20260509183905 72 196 1.0 3.0 0.00 0.00 0.00 72 1011.7
20260509183704 72 196 2.0 4.0 0.00 0.00 0.00 72 1011.6
20260509183504 72 201 2.0 4.0 0.00 0.00 0.00 71 1011.6
20260509183305 72 176 2.0 4.0 0.00 0.00 0.00 71 1011.6
20260509182901 72 32 2.0 4.0 0.00 0.00 0.00 72 1011.6
20260509182502 72 77 2.0 9.0 0.00 0.00 0.00 71 1011.6
20260509182306 72 172 2.0 9.0 0.00 0.00 0.00 70 1011.7
20260509182102 72 151 2.0 9.0 0.00 0.00 0.00 71 1011.7
20260509181659 72 100 1.0 3.0 0.00 0.00 0.00 71 1011.8
20260509181500 72 67 1.0 3.0 0.00 0.00 0.00 70 1011.8
20260509181300 72 123 1.0 3.0 0.00 0.00 0.00 70 1011.8
20260509181101 72 123 1.0 4.0 0.00 0.00 0.00 71 1011.8
20260509180901 72 72 1.0 4.0 0.00 0.00 0.00 71 1011.7
20260509180700 72 71 2.0 4.0 0.00 0.00 0.00 70 1011.7
20260509180459 72 47 2.0 4.0 0.00 0.00 0.00 70 1011.8
20260509180300 72 350 2.0 4.0 0.00 0.00 0.00 69 1011.9
20260509175857 72 342 1.0 5.0 0.00 0.00 0.00 70 1012.0
20260509175656 72 209 1.0 5.0 0.00 0.00 0.00 69 1012.1
20260509175457 72 104 1.0 5.0 0.00 0.00 0.00 69 1012.1
20260509175257 72 103 1.0 5.0 0.00 0.00 0.00 70 1012.1
20260509175055 72 28 1.0 5.0 0.00 0.00 0.00 69 1012.2
20260509174855 72 24 1.0 5.0 0.00 0.00 0.00 68 1012.2
20260509174655 72 71 2.0 5.0 0.00 0.00 0.00 68 1012.3
20260509174456 72 197 2.0 6.0 0.00 0.00 0.00 67 1012.3
20260509174256 72 77 2.0 6.0 0.00 0.00 0.00 68 1012.3
20260509173657 72 314 2.0 6.0 0.00 0.00 0.00 68 1012.3
20260509173456 71 300 2.0 6.0 0.00 0.00 0.00 68 1012.3
20260509173256 71 79 2.0 6.0 0.00 0.00 0.00 68 1012.3
20260509173056 71 81 1.0 6.0 0.00 0.00 0.00 67 1012.3
20260509172658 71 182 1.0 6.0 0.00 0.00 0.00 68 1012.3
20260509172456 71 26 1.0 4.0 0.00 0.00 0.00 67 1012.4
20260509172256 71 284 2.0 4.0 0.00 0.00 0.00 67 1012.4
20260509172056 71 313 2.0 4.0 0.00 0.00 0.00 68 1012.5
20260509171856 71 106 1.0 4.0 0.00 0.00 0.00 67 1012.5
20260509171656 71 57 2.0 5.0 0.00 0.00 0.00 68 1012.5
20260509171456 71 136 2.0 5.0 0.00 0.00 0.00 69 1012.6
20260509171255 71 71 2.0 5.0 0.00 0.00 0.00 69 1012.5
20260509170858 71 86 2.0 5.0 0.00 0.00 0.00 70 1012.5
20260509170655 71 127 2.0 5.0 0.00 0.00 0.00 71 1012.7
20260509170456 71 64 2.0 6.0 0.00 0.00 0.00 70 1012.7
20260509170255 71 63 2.0 6.0 0.00 0.00 0.00 70 1012.6
20260509165857 70 222 2.0 6.0 0.00 0.00 0.00 70 1012.7
20260509165656 70 186 2.0 6.0 0.00 0.00 0.00 69 1012.7
20260509165456 70 284 2.0 5.0 0.00 0.00 0.00 70 1012.8
20260509165255 70 51 2.0 5.0 0.00 0.00 0.00 71 1012.8
20260509165056 71 51 2.0 5.0 0.00 0.00 0.00 71 1012.9
20260509164857 70 105 1.0 5.0 0.00 0.00 0.00 71 1013.0
20260509164655 71 84 1.0 3.0 0.00 0.00 0.00 70 1013.1
20260509164455 71 355 1.0 5.0 0.00 0.00 0.00 70 1013.2
20260509164257 71 355 1.0 5.0 0.00 0.00 0.00 70 1013.2
20260509164056 71 121 1.0 5.0 0.00 0.00 0.00 68 1013.2
20260509163456 71 105 2.0 6.0 0.00 0.00 0.00 70 1013.2
20260509163057 70 126 1.0 6.0 0.00 0.00 0.00 70 1013.2
20260509162856 71 140 1.0 7.0 0.00 0.00 0.00 71 1013.2
20260509162655 70 134 2.0 7.0 0.00 0.00 0.00 71 1013.1
20260509162256 70 343 2.0 7.0 0.00 0.00 0.00 70 1013.0
20260509162057 70 167 2.0 7.0 0.00 0.00 0.00 70 1012.9
20260509161857 70 82 2.0 6.0 0.00 0.00 0.00 70 1012.9
20260509161456 70 330 2.0 7.0 0.00 0.00 0.00 72 1013.0
20260509161257 70 178 2.0 7.0 0.00 0.00 0.00 72 1013.0
20260509161056 70 147 2.0 7.0 0.00 0.00 0.00 71 1013.0
20260509160858 69 100 2.0 7.0 0.00 0.00 0.00 71 1013.1
20260509160657 69 71 2.0 7.0 0.00 0.00 0.00 71 1013.1
20260509160255 69 119 2.0 5.0 0.00 0.00 0.00 72 1013.1
20260509155856 69 93 2.0 5.0 0.00 0.00 0.00 71 1013.1
20260509155655 69 123 2.0 5.0 0.00 0.00 0.00 73 1013.1
20260509155455 69 21 2.0 4.0 0.00 0.00 0.00 72 1013.1
20260509155055 69 236 2.0 4.0 0.00 0.00 0.00 72 1013.1
20260509154856 69 22 2.0 4.0 0.00 0.00 0.00 72 1013.2
20260509154656 69 250 2.0 4.0 0.00 0.00 0.00 71 1013.2
20260509154452 69 45 2.0 4.0 0.00 0.00 0.00 71 1013.2
20260509154253 69 128 2.0 4.0 0.00 0.00 0.00 72 1013.2
20260509154052 69 204 2.0 5.0 0.00 0.00 0.00 72 1013.2
20260509153851 69 56 2.0 5.0 0.00 0.00 0.00 73 1013.1
20260509153650 69 96 1.0 5.0 0.00 0.00 0.00 73 1013.1
20260509153249 69 238 1.0 5.0 0.00 0.00 0.00 71 1013.1
20260509152848 69 202 2.0 5.0 0.00 0.00 0.00 73 1013.2
20260509152650 69 68 2.0 5.0 0.00 0.00 0.00 73 1013.1